TimeEDT,TemperatureF,Dew PointF,Humidity,Sea Level PressureIn,VisibilityMPH,Wind Direction,Wind SpeedMPH,Gust SpeedMPH,PrecipitationIn,Events,Conditions,WindDirDegrees,DateUTC
12:15 AM,68.0,60.8,78,30.05,10.0,Calm,Calm,-,N/A,,Clear,0,2013-06-15 04:15:00
12:35 AM,66.2,60.8,83,30.05,10.0,Calm,Calm,-,N/A,,Clear,0,2013-06-15 04:35:00
12:55 AM,68.0,60.8,78,30.06,10.0,Calm,Calm,-,N/A,,Clear,0,2013-06-15 04:55:00
1:15 AM,66.2,60.8,83,30.06,10.0,Calm,Calm,-,N/A,,Clear,0,2013-06-15 05:15:00
1:35 AM,66.2,60.8,83,30.07,10.0,Calm,Calm,-,N/A,,Clear,0,2013-06-15 05:35:00
1:55 AM,66.2,60.8,83,30.07,10.0,Calm,Calm,-,N/A,,Clear,0,2013-06-15 05:55:00
2:15 AM,66.2,60.8,83,30.07,10.0,Calm,Calm,-,N/A,,Clear,0,2013-06-15 06:15:00
2:35 AM,64.4,59.0,83,30.07,10.0,Calm,Calm,-,N/A,,Clear,0,2013-06-15 06:35:00
2:55 AM,64.4,59.0,83,30.07,10.0,Calm,Calm,-,N/A,,Clear,0,2013-06-15 06:55:00
3:15 AM,64.4,59.0,83,30.07,10.0,Calm,Calm,-,N/A,,Clear,0,2013-06-15 07:15:00
3:35 AM,64.4,59.0,83,30.07,10.0,Calm,Calm,-,N/A,,Clear,0,2013-06-15 07:35:00
3:55 AM,64.4,57.2,77,30.07,10.0,Calm,Calm,-,N/A,,Clear,0,2013-06-15 07:55:00
4:15 AM,64.4,59.0,83,30.07,10.0,Calm,Calm,-,N/A,,Clear,0,2013-06-15 08:15:00
4:35 AM,64.4,57.2,77,30.06,10.0,Calm,Calm,-,N/A,,Clear,0,2013-06-15 08:35:00
4:55 AM,64.4,57.2,77,30.06,10.0,Calm,Calm,-,N/A,,Clear,0,2013-06-15 08:55:00
5:15 AM,64.4,57.2,77,30.07,10.0,Calm,Calm,-,N/A,,Clear,0,2013-06-15 09:15:00
5:35 AM,62.6,57.2,82,30.07,10.0,Calm,Calm,-,N/A,,Clear,0,2013-06-15 09:35:00
5:55 AM,62.6,57.2,82,30.08,10.0,Calm,Calm,-,N/A,,Clear,0,2013-06-15 09:55:00
6:15 AM,62.6,57.2,82,30.09,10.0,NNW,3.5,-,N/A,,Clear,330,2013-06-15 10:15:00
6:35 AM,62.6,57.2,82,30.11,10.0,Calm,Calm,-,N/A,,Clear,0,2013-06-15 10:35:00
6:55 AM,64.4,57.2,77,30.11,10.0,Calm,Calm,-,N/A,,Clear,0,2013-06-15 10:55:00
7:15 AM,64.4,57.2,77,30.12,10.0,North,3.5,-,N/A,,Clear,350,2013-06-15 11:15:00
7:35 AM,66.2,59.0,78,30.13,10.0,Calm,Calm,-,N/A,,Clear,0,2013-06-15 11:35:00
7:55 AM,69.8,60.8,73,30.13,10.0,Calm,Calm,-,N/A,,Clear,0,2013-06-15 11:55:00
8:15 AM,71.6,59.0,64,30.13,10.0,Calm,Calm,-,N/A,,Clear,0,2013-06-15 12:15:00
8:35 AM,71.6,59.0,64,30.14,10.0,Calm,Calm,-,N/A,,Clear,0,2013-06-15 12:35:00
8:55 AM,73.4,59.0,61,30.15,10.0,Calm,Calm,-,N/A,,Clear,0,2013-06-15 12:55:00
9:15 AM,73.4,59.0,61,30.15,10.0,South,3.5,-,N/A,,Clear,170,2013-06-15 13:15:00
9:35 AM,75.2,59.0,57,30.16,10.0,Calm,Calm,-,N/A,,Clear,0,2013-06-15 13:35:00
9:55 AM,78.8,57.2,47,30.16,10.0,SSE,4.6,-,N/A,,Clear,160,2013-06-15 13:55:00
10:15 AM,78.8,59.0,51,30.15,10.0,West,3.5,-,N/A,,Clear,260,2013-06-15 14:15:00
10:35 AM,78.8,57.2,47,30.15,10.0,Calm,Calm,-,N/A,,Clear,0,2013-06-15 14:35:00
10:55 AM,80.6,57.2,45,30.16,10.0,Calm,Calm,-,N/A,,Clear,0,2013-06-15 14:55:00
11:15 AM,82.4,57.2,42,30.15,10.0,North,-9999.0,-,N/A,,Clear,0,2013-06-15 15:15:00
11:35 AM,82.4,57.2,42,30.15,10.0,ESE,4.6,-,N/A,,Clear,110,2013-06-15 15:35:00
11:55 AM,82.4,55.4,39,30.16,10.0,SE,3.5,-,N/A,,Partly Cloudy,140,2013-06-15 15:55:00
12:15 PM,84.2,55.4,37,30.15,10.0,East,4.6,-,N/A,,Clear,90,2013-06-15 16:15:00
12:35 PM,82.4,55.4,39,30.14,10.0,SSE,4.6,-,N/A,,Clear,150,2013-06-15 16:35:00
12:55 PM,84.2,55.4,37,30.13,10.0,East,4.6,-,N/A,,Scattered Clouds,80,2013-06-15 16:55:00
1:15 PM,84.2,53.6,35,30.13,8.0,Calm,Calm,-,N/A,,Scattered Clouds,0,2013-06-15 17:15:00
1:35 PM,84.2,55.4,37,30.13,10.0,SE,5.8,-,N/A,,Scattered Clouds,140,2013-06-15 17:35:00
1:55 PM,84.2,53.6,35,30.12,10.0,WNW,4.6,-,N/A,,Clear,300,2013-06-15 17:55:00
2:15 PM,86.0,55.4,35,30.12,10.0,South,5.8,20.7,N/A,,Scattered Clouds,170,2013-06-15 18:15:00
2:35 PM,86.0,55.4,35,30.11,10.0,ESE,6.9,-,N/A,,Scattered Clouds,120,2013-06-15 18:35:00
2:55 PM,84.2,55.4,37,30.11,10.0,ESE,5.8,-,N/A,,Mostly Cloudy,110,2013-06-15 18:55:00
3:15 PM,87.8,55.4,33,30.11,10.0,SSE,6.9,-,N/A,,Mostly Cloudy,160,2013-06-15 19:15:00
3:35 PM,86.0,55.4,35,30.11,10.0,South,5.8,-,N/A,,Mostly Cloudy,170,2013-06-15 19:35:00
3:55 PM,87.8,55.4,33,30.10,10.0,SSW,3.5,-,N/A,,Mostly Cloudy,200,2013-06-15 19:55:00
4:15 PM,87.8,55.4,33,30.10,10.0,Calm,Calm,-,N/A,,Scattered Clouds,0,2013-06-15 20:15:00
4:35 PM,87.8,55.4,33,30.10,10.0,West,5.8,-,N/A,,Scattered Clouds,280,2013-06-15 20:35:00
4:55 PM,87.8,55.4,33,30.09,10.0,SW,9.2,-,N/A,,Partly Cloudy,220,2013-06-15 20:55:00
5:15 PM,86.0,55.4,35,30.09,10.0,SSE,8.1,-,N/A,,Partly Cloudy,160,2013-06-15 21:15:00
5:35 PM,84.2,55.4,37,30.09,10.0,South,6.9,-,N/A,,Mostly Cloudy,180,2013-06-15 21:35:00
5:55 PM,86.0,57.2,37,30.09,10.0,South,8.1,-,N/A,,Mostly Cloudy,170,2013-06-15 21:55:00
6:15 PM,86.0,55.4,35,30.09,10.0,WSW,3.5,-,N/A,,Mostly Cloudy,240,2013-06-15 22:15:00
6:35 PM,84.2,57.2,40,30.09,10.0,SW,6.9,-,N/A,,Mostly Cloudy,230,2013-06-15 22:35:00
6:55 PM,84.2,57.2,40,30.09,10.0,SW,10.4,-,N/A,,Mostly Cloudy,220,2013-06-15 22:55:00
7:15 PM,84.2,57.2,40,30.10,10.0,South,8.1,-,N/A,,Mostly Cloudy,190,2013-06-15 23:15:00
7:35 PM,84.2,57.2,40,30.10,10.0,SSW,9.2,-,N/A,,Scattered Clouds,210,2013-06-15 23:35:00
7:55 PM,82.4,59.0,45,30.10,10.0,South,5.8,-,N/A,,Clear,190,2013-06-15 23:55:00
8:15 PM,80.6,57.2,45,30.10,10.0,South,6.9,-,N/A,,Clear,190,2013-06-16 00:15:00
8:35 PM,80.6,59.0,48,30.10,10.0,South,5.8,-,N/A,,Partly Cloudy,180,2013-06-16 00:35:00
8:55 PM,78.8,57.2,47,30.10,10.0,South,11.5,-,N/A,,Mostly Cloudy,170,2013-06-16 00:55:00
9:15 PM,77.0,55.4,47,30.11,10.0,South,10.4,-,N/A,,Scattered Clouds,180,2013-06-16 01:15:00
9:35 PM,75.2,53.6,47,30.11,10.0,South,8.1,-,N/A,,Scattered Clouds,180,2013-06-16 01:35:00
9:55 PM,75.2,53.6,47,30.12,10.0,South,8.1,-,N/A,,Partly Cloudy,180,2013-06-16 01:55:00
10:15 PM,75.2,53.6,47,30.13,10.0,South,6.9,-,N/A,,Clear,180,2013-06-16 02:15:00
10:35 PM,73.4,53.6,50,30.13,10.0,South,8.1,-,N/A,,Clear,190,2013-06-16 02:35:00
10:55 PM,73.4,53.6,50,30.13,10.0,South,8.1,-,N/A,,Clear,190,2013-06-16 02:55:00
11:15 PM,73.4,53.6,50,30.13,10.0,South,10.4,-,N/A,,Clear,190,2013-06-16 03:15:00
11:35 PM,73.4,53.6,50,30.13,10.0,South,10.4,-,N/A,,Clear,190,2013-06-16 03:35:00
11:55 PM,71.6,53.6,53,30.14,10.0,SSW,9.2,-,N/A,,Clear,200,2013-06-16 03:55:00